1514196000.55,36110,9.19,73614.5,-4.91,-5.85,-5.77,0,*54
1514196001.79,36111,9.19,73610.8,-4.91,-5.85,-5.77,0,*55
1514196003.07,36112,9.19,73640.3,-4.93,-5.77,-5.77,0,*59
1514196004.31,36113,9.19,73600.0,-4.91,-5.77,-5.77,0,*5A
1514196005.58,36114,9.19,73626.8,-4.93,-5.77,-5.77,0,*5F
1514196006.83,36115,9.19,73626.8,-4.91,-5.77,-5.85,0,*51
1514196008.11,36116,9.19,73638.8,-4.93,-5.77,-5.77,0,*5D
1514196009.39,36117,9.19,73642.8,-4.93,-5.85,-5.85,0,*5C
1514196010.64,36118,9.19,73658.3,-4.91,-5.77,-5.85,0,*5C
1514196011.88,36119,9.19,73654.5,-4.91,-5.77,-5.77,0,*50
1514196013.13,36120,9.19,73650.0,-4.91,-5.77,-5.77,0,*5A
1514196014.37,36121,9.19,73654.3,-4.91,-5.77,-5.77,0,*5B
1514196015.65,36122,9.19,73654.0,-4.93,-5.77,-5.85,0,*57
1514196016.92,36123,9.19,73654.3,-4.93,-5.77,-5.77,0,*5B
1514196018.19,36124,9.19,73652.8,-4.93,-5.77,-5.77,0,*5C
1514196019.47,36125,9.19,73650.8,-4.93,-5.77,-5.77,0,*5D
1514196020.74,36126,9.19,73652.0,-4.93,-5.77,-5.77,0,*5E
1514196022.01,36127,9.25,73662.3,-4.93,-5.77,-5.77,0,*5F
1514196023.25,36128,9.19,73662.0,-4.91,-5.77,-5.77,0,*52
1514196024.53,36129,9.19,73682.8,-4.93,-5.77,-5.85,0,*5C
1514196025.81,36130,9.19,73652.5,-4.93,-5.85,-5.85,0,*59
1514196027.09,36131,9.19,73658.0,-4.93,-5.77,-5.85,0,*55
1514196028.36,36132,9.19,73654.0,-4.93,-5.77,-5.77,0,*5B
1514196029.61,36133,9.19,73648.0,-4.91,-5.77,-5.77,0,*58
1514196030.88,36134,9.19,73646.3,-4.93,-5.77,-5.77,0,*5D
1514196032.15,36135,9.25,73646.8,-4.93,-5.77,-5.77,0,*5C
1514196033.43,36136,9.19,73648.8,-4.93,-5.77,-5.85,0,*52
1514196034.68,36137,9.19,73652.0,-4.95,-5.81,-5.81,0,*58
1514196035.92,36138,9.19,73648.0,-4.95,-5.81,-5.89,0,*5F
1514196037.2,36139,9.19,73642.0,-4.93,-5.85,-5.77,0,*5D
1514196038.47,36140,9.19,73644.0,-4.93,-5.77,-5.77,0,*5E
1514196039.72,36141,9.19,73660.0,-4.95,-5.89,-5.81,0,*51
1514196040.96,36142,9.19,73660.5,-4.95,-5.81,-5.81,0,*5A
1514196042.21,36143,9.19,73654.5,-4.95,-5.89,-5.89,0,*5B
1514196043.46,36144,9.19,73656.5,-4.95,-5.89,-5.89,0,*5C
1514196044.74,36145,9.19,73650.8,-4.97,-5.81,-5.89,0,*57
1514196045.98,36146,9.19,73630.8,-4.95,-5.89,-5.81,0,*56
1514196047.23,36147,9.19,73612.5,-4.95,-5.81,-5.89,0,*57
1514196048.48,36148,9.25,73610.0,-4.95,-5.81,-5.81,0,*50
1514196049.73,36149,9.19,73614.5,-4.95,-5.81,-5.81,0,*51
1514196050.97,36150,9.19,73630.8,-4.95,-5.89,-5.81,0,*51
1514196052.22,36151,9.19,73638.3,-4.95,-5.81,-5.81,0,*58
1514196053.49,36152,9.19,73636.8,-4.97,-5.89,-5.81,0,*51
1514196054.74,36153,9.19,73656.0,-4.95,-5.81,-5.81,0,*5A
1514196055.99,36154,9.19,73666.0,-4.95,-5.81,-5.89,0,*55
1514196057.24,36155,9.19,73646.3,-4.95,-5.81,-5.89,0,*54
1514196058.48,36156,9.19,73648.0,-4.95,-5.81,-5.81,0,*5F
1514196059.73,36157,9.19,73658.3,-4.95,-5.89,-5.81,0,*56
1514196060.98,36158,9.19,73670.5,-4.95,-5.81,-5.89,0,*59
1514196062.25,36159,9.19,73656.8,-4.97,-5.89,-5.81,0,*5A
1514196063.5,36160,9.19,73640.3,-4.95,-5.89,-5.81,0,*52
1514196064.75,36161,9.19,73648.3,-4.95,-5.89,-5.89,0,*5B
1514196065.99,36162,9.19,73648.8,-4.95,-5.89,-5.81,0,*50
1514196067.24,36163,9.19,73644.8,-4.95,-5.89,-5.81,0,*51
1514196068.49,36164,9.19,73666.0,-4.95,-5.81,-5.89,0,*56
1514196069.73,36165,9.19,73656.8,-4.95,-5.81,-5.81,0,*5F
1514196070.98,36166,9.19,73648.0,-4.95,-5.89,-5.89,0,*5C
1514196072.26,36167,9.19,73642.0,-4.97,-5.89,-5.89,0,*5F
1514196073.54,36168,9.25,73652.0,-4.97,-5.89,-5.81,0,*58
1514196074.78,36169,9.19,73632.8,-4.95,-5.89,-5.81,0,*5B
1514196076.06,36170,9.19,73644.3,-4.97,-5.89,-5.81,0,*51
1514196077.33,36171,9.19,73644.0,-4.97,-5.89,-5.81,0,*50
1514196078.61,36172,9.19,73642.5,-4.97,-5.81,-5.81,0,*5B
1514196079.86,36173,9.19,73624.3,-4.95,-5.81,-5.81,0,*58
1514196081.14,36174,9.19,73620.3,-4.97,-5.89,-5.89,0,*5D
1514196082.41,36175,9.19,73640.8,-4.97,-5.93,-5.81,0,*5F
1514196083.66,36176,9.19,73640.5,-4.95,-5.81,-5.89,0,*55
1514196084.91,36177,9.19,73636.0,-4.95,-5.89,-5.81,0,*54
1514196086.16,36178,9.19,73640.5,-4.95,-5.81,-5.81,0,*53
1514196087.43,36179,9.19,73640.3,-4.97,-5.89,-5.81,0,*58
1514196088.71,36180,9.25,73648.3,-4.97,-5.89,-5.89,0,*56
1514196089.99,36181,9.19,73650.5,-4.97,-5.81,-5.81,0,*57
1514196091.23,36182,9.19,73658.8,-5.01,-5.93,-5.93,0,*5A
1514196092.48,36183,9.19,73654.0,-5.01,-5.85,-5.93,0,*5C
1514196093.74,36184,9.19,73650.8,-5.01,-5.93,-5.85,0,*5B
1514196094.99,36185,9.19,73646.3,-5.01,-5.85,-5.85,0,*5D
1514196096.24,36186,9.19,73642.8,-5.01,-5.93,-5.93,0,*5E
1514196097.51,36187,9.19,73630.8,-4.97,-5.81,-5.81,0,*51
1514196098.79,36188,9.19,73634.8,-4.97,-5.89,-5.81,0,*56
1514196100.07,36189,9.19,73638.8,-4.97,-5.89,-5.89,0,*5F
1514196101.34,36190,9.19,73638.5,-4.97,-5.89,-5.81,0,*5F
1514196102.62,36191,9.19,73642.8,-4.97,-5.89,-5.89,0,*56
1514196103.9,36192,9.19,73634.5,-4.97,-5.81,-5.81,0,*55
1514196105.15,36193,9.19,73638.5,-5.01,-5.93,-5.93,0,*5A
1514196106.4,36194,9.19,73630.5,-5.01,-5.85,-5.85,0,*5D
1514196107.65,36195,9.19,73644.0,-5.01,-5.93,-5.85,0,*5B
1514196108.9,36196,9.19,73640.5,-5.01,-5.85,-5.93,0,*58
1514196110.18,36197,9.19,73636.3,-4.97,-5.81,-5.89,0,*58
1514196111.43,36198,9.19,73644.3,-5.01,-5.93,-5.85,0,*56
1514196112.68,36199,9.19,73656.5,-5.01,-5.93,-5.93,0,*50
1514196113.96,36200,9.19,73660.8,-5.03,-5.85,-5.93,0,*56
1514196115.2,36201,9.25,73644.0,-5.01,-5.85,-5.93,0,*55
1514196116.45,36202,9.19,73646.8,-5.01,-5.85,-5.93,0,*56
1514196117.71,36203,9.19,73658.0,-5.01,-5.93,-5.85,0,*57
1514196118.95,36204,9.19,73654.5,-5.01,-5.93,-5.93,0,*57
1514196120.2,36205,9.19,73652.5,-5.01,-5.93,-5.93,0,*56
1514196121.42,36206,9.19,73650.5,-5.01,-5.93,-5.97,0,*51
1514196122.7,36207,9.19,73642.5,-5.03,-5.85,-5.93,0,*51
1514196123.95,36208,9.19,73650.0,-5.01,-5.93,-5.93,0,*5B
1514196125.2,36209,9.19,73652.5,-5.01,-5.85,-5.93,0,*5D
1514196126.47,36210,9.19,73658.0,-5.03,-5.93,-5.93,0,*50
1514196127.72,36211,9.19,73668.0,-5.01,-5.93,-5.93,0,*53
1514196128.99,36212,9.19,73664.5,-5.03,-5.93,-5.93,0,*52
1514196130.25,36213,9.19,73648.8,-5.01,-5.85,-5.85,0,*51
1514196131.52,36214,9.19,73652.0,-5.03,-5.93,-5.85,0,*53
1514196132.77,36215,9.19,73656.8,-5.01,-5.85,-5.93,0,*50
1514196134.05,36216,9.19,73662.0,-5.03,-5.85,-5.93,0,*51
1514196135.3,36217,9.19,73662.0,-5.01,-5.93,-5.93,0,*55
1514196136.58,36218,9.25,73660.0,-5.03,-5.93,-5.85,0,*5F
1514196137.85,36219,9.19,73654.5,-5.03,-5.93,-5.93,0,*59
1514196139.13,36220,9.19,73652.5,-5.03,-5.93,-5.93,0,*53
1514196140.37,36221,9.19,73654.3,-5.01,-5.93,-5.93,0,*50
1514196141.65,36222,9.19,73666.0,-5.03,-5.93,-5.93,0,*51
1514196142.92,36223,9.19,73670.0,-5.03,-5.93,-5.93,0,*50
1514196144.2,36224,9.19,73670.3,-5.03,-5.93,-5.85,0,*50
1514196145.47,36225,9.19,73662.3,-5.03,-5.93,-5.93,0,*56
1514196146.75,36226,9.19,73660.8,-5.03,-5.93,-5.93,0,*55
1514196148.03,36227,9.19,73660.5,-5.03,-5.93,-5.85,0,*53
1514196149.31,36228,9.19,73664.3,-5.03,-5.93,-5.85,0,*5C
1514196150.58,36229,9.19,73668.0,-5.03,-5.93,-5.85,0,*5D
1514196151.86,36230,9.19,73664.5,-5.03,-5.85,-5.93,0,*55
1514196153.05,36231,9.19,73656.5,-5.05,-5.97,-5.97,0,*55
1514196154.33,36232,9.19,73654.8,-5.03,-5.93,-5.93,0,*50
1514196155.55,36233,9.19,73658.3,-5.05,-5.85,-5.97,0,*54
1514196156.78,36234,9.19,73638.5,-5.05,-5.89,-5.97,0,*5F
1514196158.02,36235,9.19,73638.8,-5.07,-5.89,-5.97,0,*5C
1514196159.22,36236,9.19,73630.0,-5.05,-5.97,-5.97,0,*52
1514196160.41,36237,9.19,73636.0,-5.05,-5.97,-5.97,0,*53
1514196161.61,36238,9.19,73632.3,-5.05,-5.97,-5.97,0,*5C
1514196162.89,36239,9.19,73644.8,-5.03,-5.85,-5.85,0,*5B
1514196164.16,36240,9.19,73634.5,-5.03,-5.93,-5.93,0,*55
1514196165.44,36241,9.25,73634.8,-5.03,-5.93,-5.93,0,*54
1514196166.71,36242,9.19,73630.0,-5.03,-5.93,-5.93,0,*57
1514196167.94,36243,9.19,73616.3,-5.05,-5.97,-5.89,0,*5F
1514196169.17,36244,9.19,73614.8,-5.05,-5.97,-5.89,0,*58
1514196170.38,36245,9.19,73612.0,-5.07,-5.97,-5.97,0,*54
1514196171.58,36246,9.19,73612.3,-5.05,-5.97,-5.97,0,*55
1514196172.8,36247,9.19,73610.0,-5.07,-5.97,-5.97,0,*56
1514196173.99,36248,9.25,73608.8,-5.05,-5.97,-5.97,0,*5B
1514196175.24,36249,9.19,73610.3,-5.07,-5.89,-5.97,0,*57
1514196176.49,36250,9.19,73608.0,-5.07,-5.97,-5.89,0,*5F
1514196177.71,36251,9.19,73600.0,-5.05,-5.89,-5.97,0,*5C
1514196178.9,36252,9.19,73600.8,-5.05,-5.97,-5.97,0,*50
1514196180.13,36253,9.19,73598.3,-5.05,-5.97,-5.89,0,*5E
1514196181.33,36254,9.19,73604.8,-5.05,-5.97,-5.97,0,*56
1514196182.57,36255,9.19,73598.5,-5.07,-5.89,-5.97,0,*5A
1514196183.79,36256,9.25,73580.8,-5.07,-5.97,-5.97,0,*56
1514196185.03,36257,9.25,73588.0,-5.07,-5.89,-5.97,0,*58
1514196186.25,36258,9.19,73590.3,-5.05,-5.89,-5.97,0,*55
1514196187.48,36259,9.19,73594.8,-5.05,-5.97,-5.89,0,*54
1514196188.68,36260,9.25,73602.3,-5.05,-5.97,-5.97,0,*51
1514196189.93,36261,9.25,73594.5,-5.07,-5.97,-5.89,0,*5D
1514196191.14,36262,9.19,73582.0,-5.07,-5.97,-5.97,0,*51
1514196192.37,36263,9.19,73590.5,-5.05,-5.97,-5.89,0,*5D
1514196193.62,36264,9.19,73602.3,-5.07,-5.89,-5.97,0,*58
1514196194.81,36265,9.25,73614.0,-5.05,-5.97,-5.97,0,*54
1514196196.03,36266,9.19,73610.3,-5.07,-5.97,-5.97,0,*55
1514196197.22,36267,9.25,73602.3,-5.05,-5.97,-6.01,0,*5A
1514196198.42,36268,9.19,73604.3,-5.05,-5.97,-5.97,0,*59
1514196199.62,36269,9.25,73614.8,-5.05,-6.01,-5.97,0,*54
1514196200.84,36270,9.19,73620.5,-5.07,-5.97,-5.97,0,*52
1514196202.09,36271,9.19,73636.8,-5.05,-5.89,-5.89,0,*51
1514196203.29,36272,9.19,73640.0,-5.05,-5.97,-5.97,0,*52
1514196204.5,36273,9.19,73638.0,-5.07,-5.97,-5.97,0,*51
1514196205.72,36274,9.19,73646.8,-5.07,-6.01,-5.97,0,*5A
1514196206.94,36275,9.19,73652.5,-5.07,-5.97,-5.97,0,*57
1514196208.21,36276,9.19,73626.3,-5.07,-5.89,-5.89,0,*54
1514196209.45,36277,9.19,73618.5,-5.07,-5.89,-5.97,0,*5A
1514196210.7,36278,9.19,73616.8,-5.07,-6.01,-5.89,0,*59
1514196211.95,36279,9.19,73618.8,-5.07,-5.89,-6.01,0,*58
1514196213.16,36280,9.19,73626.3,-5.07,-5.97,-5.97,0,*5D
1514196214.36,36281,9.19,73636.3,-5.05,-6.01,-5.97,0,*52
1514196215.58,36282,9.19,73642.5,-5.07,-5.97,-6.01,0,*53
1514196216.77,36283,9.25,73656.3,-5.09,-6.01,-6.01,0,*50
1514196218.02,36284,9.25,73656.8,-5.07,-5.97,-5.89,0,*56
1514196219.24,36285,9.25,73662.8,-5.07,-5.97,-5.97,0,*58
1514196220.43,36286,9.19,73648.5,-5.09,-6.01,-6.01,0,*55
1514196221.66,36287,9.19,73646.0,-5.09,-6.01,-5.93,0,*5C
1514196222.87,36288,9.19,73640.3,-5.11,-6.05,-6.05,0,*52
1514196224.06,36289,9.19,73634.5,-5.09,-6.01,-6.01,0,*5A
1514196225.26,36290,9.19,73622.3,-5.09,-6.01,-6.01,0,*52
1514196226.48,36291,9.19,73640.0,-5.09,-6.05,-5.93,0,*5F
1514196227.67,36292,9.19,73628.0,-5.09,-6.01,-6.01,0,*50
1514196228.89,36293,9.19,73640.5,-5.07,-5.97,-5.97,0,*5F
1514196230.14,36294,9.19,73642.0,-5.07,-5.97,-5.89,0,*57
1514196231.36,36295,9.25,73634.5,-5.07,-5.97,-5.97,0,*59
1514196232.6,36296,9.19,73638.8,-5.07,-5.89,-5.97,0,*55
1514196233.85,36297,9.19,73616.3,-5.09,-5.93,-5.93,0,*55
1514196235.1,36298,9.19,73622.5,-5.09,-5.93,-5.93,0,*5A
1514196236.32,36299,9.19,73644.0,-5.11,-6.09,-6.05,0,*5E
1514196237.57,36300,9.19,73640.5,-5.09,-5.93,-5.93,0,*5A
1514196238.77,36301,9.19,73656.3,-5.09,-6.01,-6.05,0,*5F
1514196239.96,36302,9.19,73654.5,-5.09,-6.05,-6.05,0,*58
1514196241.17,36303,9.25,73648.3,-5.11,-6.05,-6.05,0,*50
1514196242.37,36304,9.19,73644.3,-5.09,-6.09,-6.05,0,*52
1514196243.56,36305,9.19,73640.8,-5.09,-6.01,-6.01,0,*5F
1514196244.76,36306,9.19,73626.0,-5.09,-6.01,-6.01,0,*5C
1514196245.97,36307,9.25,73582.8,-5.11,-6.05,-6.05,0,*54
1514196247.16,36308,9.19,73596.3,-5.09,-6.01,-6.01,0,*52
1514196248.36,36309,9.19,73610.0,-5.09,-6.01,-6.01,0,*53
1514196249.57,36310,9.19,73604.3,-5.11,-6.05,-5.97,0,*5A
1514196250.79,36311,9.19,73620.3,-5.11,-6.05,-6.05,0,*53
1514196252.01,36312,9.19,73634.5,-5.09,-6.01,-5.93,0,*51
1514196253.23,36313,9.25,73632.5,-5.09,-5.93,-6.01,0,*50
1514196254.45,36314,9.19,73628.5,-5.11,-6.05,-6.05,0,*56
1514196255.66,36315,9.19,73622.5,-5.11,-6.05,-6.05,0,*57
1514196256.85,36316,9.19,73628.0,-5.09,-6.01,-6.01,0,*5D
1514196258.05,36317,9.19,73628.0,-5.09,-6.01,-6.01,0,*5C
1514196259.26,36318,9.25,73636.5,-5.11,-6.05,-6.05,0,*5A
1514196260.45,36319,9.19,73624.5,-5.09,-6.01,-6.05,0,*56
1514196261.67,36320,9.19,73622.8,-5.11,-6.05,-5.97,0,*59
1514196262.89,36321,9.19,73624.5,-5.09,-5.93,-6.01,0,*51
1514196264.1,36322,9.19,73620.5,-5.11,-6.05,-6.05,0,*53
1514196265.3,36323,9.19,73632.3,-5.09,-5.97,-5.97,0,*5B
1514196266.51,36324,9.25,73630.8,-5.11,-6.05,-6.05,0,*55
1514196267.71,36325,9.25,73624.5,-5.09,-6.01,-6.05,0,*59
1514196268.92,36326,9.19,73612.3,-5.11,-6.05,-6.05,0,*57
1514196270.13,36327,9.19,73590.8,-5.11,-6.05,-5.97,0,*5E
1514196271.35,36328,9.25,73616.0,-5.11,-5.97,-6.05,0,*51
1514196272.56,36329,9.19,73600.5,-5.11,-6.05,-6.05,0,*58
1514196273.76,36330,9.19,73622.8,-5.13,-5.97,-6.05,0,*5A
1514196274.97,36331,9.19,73616.3,-5.11,-5.97,-6.05,0,*59
1514196276.19,36332,9.19,73610.5,-5.11,-6.05,-6.05,0,*52
1514196277.38,36333,9.19,73584.0,-5.13,-5.97,-6.05,0,*59
1514196278.57,36334,9.25,73586.5,-5.13,-6.05,-5.97,0,*5E
1514196279.76,36335,9.19,73612.3,-5.13,-6.05,-5.97,0,*5F
1514196280.98,36336,9.19,73616.8,-5.09,-5.93,-6.01,0,*57
1514196282.21,36337,9.19,73620.8,-5.09,-6.01,-5.93,0,*56
1514196283.4,36338,9.25,73618.0,-5.13,-5.97,-6.05,0,*52
1514196284.6,36339,9.19,73606.3,-5.13,-5.97,-6.05,0,*53
1514196285.79,36340,9.19,73588.8,-5.13,-5.97,-5.97,0,*55
1514196286.98,36341,9.19,73612.5,-5.13,-5.97,-6.05,0,*5C
1514196288.17,36342,9.19,73610.0,-5.13,-6.05,-6.05,0,*57
1514196289.36,36343,9.25,73612.3,-5.13,-6.05,-5.97,0,*5E
1514196290.56,36344,9.19,73620.5,-5.13,-5.97,-6.05,0,*59
1514196291.75,36345,9.19,73620.3,-5.13,-6.05,-5.97,0,*58
1514196292.94,36346,9.19,73624.5,-5.13,-5.97,-6.05,0,*5B
1514196294.13,36347,9.19,73632.5,-5.13,-6.05,-6.05,0,*52
1514196295.35,36348,9.19,73638.0,-5.11,-5.97,-6.05,0,*57
1514196296.54,36349,9.19,73644.3,-5.13,-6.05,-6.05,0,*5C
1514196297.73,36350,9.19,73640.0,-5.13,-6.05,-6.05,0,*54
1514196298.92,36351,9.19,73638.0,-5.13,-6.05,-6.05,0,*55
1514196300.11,36352,9.19,73634.3,-5.13,-6.05,-6.05,0,*56
1514196301.3,36353,9.25,73614.8,-5.13,-6.05,-6.05,0,*57
1514196302.49,36354,9.25,73604.0,-5.13,-6.05,-6.05,0,*50
1514196303.69,36355,9.19,73602.0,-5.17,-6.09,-6.09,0,*55
1514196304.88,36356,9.19,73588.8,-5.13,-6.09,-6.09,0,*52
1514196306.07,36357,9.19,73584.5,-5.13,-6.05,-6.05,0,*53
1514196307.27,36358,9.25,73604.5,-5.13,-6.09,-6.05,0,*50
1514196308.46,36359,9.19,73620.3,-5.13,-6.05,-6.05,0,*5D
1514196309.65,36360,9.25,73626.0,-5.13,-6.05,-6.05,0,*57
1514196310.85,36361,9.19,73632.3,-5.13,-6.09,-6.09,0,*56
1514196312.04,36362,9.19,73638.3,-5.13,-6.05,-6.05,0,*55
1514196313.23,36363,9.25,73636.3,-5.13,-5.97,-6.05,0,*5C
1514196314.43,36364,9.19,73624.0,-5.13,-6.01,-6.09,0,*5B
1514196315.62,36365,9.19,73632.0,-5.17,-6.05,-5.97,0,*5E
1514196316.82,36366,9.19,73632.8,-5.17,-6.09,-6.09,0,*55
1514196318.01,36367,9.19,73638.3,-5.13,-6.05,-5.97,0,*58
1514196319.2,36368,9.19,73636.0,-5.13,-6.05,-6.05,0,*5F
1514196320.39,36369,9.25,73618.3,-5.13,-6.05,-6.01,0,*5A
1514196321.58,36370,9.25,73618.8,-5.13,-6.05,-6.05,0,*56
1514196322.77,36371,9.19,73602.0,-5.13,-6.05,-6.05,0,*57
1514196323.97,36372,9.19,73606.3,-5.17,-6.09,-6.01,0,*58
1514196325.16,36373,9.25,73604.8,-5.17,-6.09,-6.09,0,*51
1514196326.35,36374,9.19,73612.0,-5.13,-6.05,-5.97,0,*5A
1514196327.55,36375,9.19,73618.3,-5.17,-6.09,-6.01,0,*5F
1514196328.75,36376,9.19,73616.0,-5.17,-6.09,-6.09,0,*54
1514196329.94,36377,9.19,73620.8,-5.17,-6.01,-6.13,0,*56
1514196331.13,36378,9.25,73622.0,-5.13,-6.05,-6.05,0,*5E
1514196332.32,36379,9.19,73622.5,-5.13,-6.05,-6.05,0,*5F
1514196333.52,36380,9.25,73628.0,-5.13,-5.97,-6.05,0,*51
1514196334.71,36381,9.19,73628.3,-5.17,-6.09,-6.01,0,*54
1514196335.9,36382,9.19,73628.3,-5.13,-6.05,-6.05,0,*5B
1514196337.1,36383,9.19,73630.3,-5.17,-6.09,-6.01,0,*56
1514196338.3,36384,9.25,73636.5,-5.17,-6.09,-6.01,0,*51
1514196339.5,36385,9.19,73624.3,-5.17,-6.09,-6.09,0,*58
1514196340.69,36386,9.19,73626.3,-5.17,-6.09,-6.09,0,*5B
1514196341.89,36387,9.19,73626.0,-5.17,-6.09,-6.09,0,*5A
1514196343.09,36388,9.25,73632.8,-5.17,-6.09,-6.01,0,*5D
1514196344.28,36389,9.19,73634.8,-5.17,-6.01,-6.09,0,*5C
1514196345.48,36390,9.19,73638.5,-5.17,-6.01,-6.01,0,*5C
1514196346.67,36391,9.19,73640.8,-5.17,-6.09,-6.09,0,*5D
1514196347.86,36392,9.19,73642.3,-5.13,-6.05,-6.05,0,*5A
1514196349.06,36393,9.19,73646.0,-5.17,-6.09,-6.01,0,*57
1514196350.25,36394,9.19,73636.3,-5.13,-6.05,-6.05,0,*5C
1514196351.45,36395,9.19,73638.5,-5.17,-6.01,-6.01,0,*59
1514196352.64,36396,9.25,73630.8,-5.17,-6.09,-6.09,0,*5A
1514196353.84,36397,9.25,73644.3,-5.17,-6.13,-6.09,0,*50
1514196355.03,36398,9.19,73642.5,-5.17,-6.09,-6.09,0,*54
1514196356.23,36399,9.25,73652.0,-5.17,-6.09,-6.01,0,*5D
1514196357.43,36400,9.19,73654.8,-5.17,-6.09,-6.09,0,*52
1514196358.63,36401,9.25,73632.8,-5.17,-6.09,-6.09,0,*53
1514196359.82,36402,9.19,73612.8,-5.13,-5.97,-5.97,0,*54
1514196361.02,36403,9.19,73632.3,-5.17,-6.09,-6.09,0,*51
1514196362.21,36404,9.25,73638.8,-5.17,-6.09,-6.09,0,*56
1514196363.41,36405,9.25,73640.3,-5.17,-6.09,-6.09,0,*57
1514196364.63,36406,9.19,73636.5,-5.19,-6.13,-6.13,0,*5A
1514196365.88,36407,9.19,73640.8,-5.19,-6.13,-6.19,0,*51
1514196367.1,36408,9.19,73648.5,-5.19,-6.13,-6.05,0,*53
1514196368.3,36409,9.19,73650.5,-5.17,-6.09,-6.09,0,*5B
1514196369.5,36410,9.25,73652.5,-5.17,-6.09,-6.09,0,*53
1514196370.69,36411,9.25,73662.3,-5.17,-6.09,-6.01,0,*5A
1514196371.89,36412,9.25,73658.0,-5.17,-6.09,-6.01,0,*59
1514196373.09,36413,9.25,73656.0,-5.17,-6.01,-6.01,0,*50
1514196374.31,36414,9.19,73616.0,-5.19,-6.13,-6.13,0,*59
1514196375.53,36415,9.25,73620.3,-5.19,-6.13,-6.13,0,*58
1514196376.75,36416,9.19,73608.8,-5.19,-6.05,-6.13,0,*5C
1514196377.94,36417,9.25,73624.0,-5.21,-6.05,-6.05,0,*51
1514196379.13,36418,9.25,73640.3,-5.21,-6.13,-6.05,0,*59
1514196380.36,36419,9.25,73662.8,-5.19,-6.13,-6.13,0,*54
1514196381.6,36420,9.19,73656.5,-5.19,-6.19,-6.13,0,*54
1514196382.8,36421,9.19,73654.0,-5.21,-6.13,-6.05,0,*53
1514196384.0,36422,9.19,73618.3,-5.21,-6.13,-6.05,0,*50
1514196385.22,36423,9.19,73620.8,-5.19,-6.05,-6.13,0,*5A
1514196386.44,36424,9.19,73640.0,-5.19,-6.13,-6.13,0,*5A
1514196387.66,36425,9.19,73638.5,-5.19,-6.13,-6.13,0,*5B
1514196388.88,36426,9.19,73634.3,-5.19,-6.13,-6.13,0,*58
1514196390.1,36427,9.19,73652.5,-5.19,-6.13,-6.13,0,*59
1514196391.3,36428,9.25,73620.3,-5.21,-6.13,-6.13,0,*5D
1514196392.49,36429,9.19,73618.0,-5.21,-6.05,-6.13,0,*5B
1514196393.71,36430,9.19,73620.5,-5.19,-6.13,-6.13,0,*5F
1514196394.91,36431,9.19,73614.5,-5.21,-6.05,-6.13,0,*52
1514196396.13,36432,9.19,73614.0,-5.19,-6.13,-6.05,0,*5A
1514196397.35,36433,9.19,73616.8,-5.19,-6.13,-6.05,0,*5B
1514196398.57,36434,9.25,73624.3,-5.19,-6.13,-6.13,0,*5B
1514196399.79,36435,9.25,73630.8,-5.19,-6.13,-6.13,0,*5A
1514196401.04,36436,9.19,73622.5,-5.19,-6.19,-6.13,0,*53
1514196402.23,36437,9.19,73618.8,-5.21,-6.05,-6.13,0,*54
1514196403.45,36438,9.19,73622.0,-5.19,-6.13,-6.13,0,*57
1514196404.65,36439,9.25,73620.8,-5.21,-6.13,-6.13,0,*5D
1514196405.87,36440,9.19,73620.3,-5.19,-6.13,-6.13,0,*58
1514196407.09,36441,9.25,73628.0,-5.19,-6.13,-6.13,0,*59
1514196408.29,36442,9.19,73630.3,-5.21,-6.13,-6.13,0,*51
1514196409.48,36443,9.19,73628.0,-5.21,-6.05,-6.13,0,*57
1514196410.7,36444,9.19,73630.3,-5.19,-6.13,-6.05,0,*5B
1514196411.9,36445,9.25,73638.0,-5.21,-6.05,-6.13,0,*51
1514196413.09,36446,9.19,73632.3,-5.21,-6.05,-6.13,0,*52
1514196414.29,36447,9.25,73630.0,-5.21,-6.13,-6.13,0,*54
1514196415.49,36448,9.19,73622.5,-5.21,-6.13,-6.05,0,*5C
1514196416.68,36449,9.19,73614.0,-5.21,-6.05,-6.05,0,*5A
1514196417.88,36450,9.25,73610.8,-5.21,-6.13,-6.13,0,*52
1514196419.08,36451,9.19,73622.8,-5.21,-6.13,-6.05,0,*54
1514196420.3,36452,9.19,73606.5,-5.19,-6.13,-6.13,0,*5B
1514196421.49,36453,9.19,73610.8,-5.21,-6.05,-6.13,0,*56
1514196422.69,36454,9.25,73600.3,-5.21,-6.13,-6.13,0,*56
1514196423.89,36455,9.19,73596.0,-5.21,-6.13,-6.05,0,*50
1514196425.08,36456,9.19,73608.3,-5.21,-6.05,-6.13,0,*53
1514196426.27,36457,9.25,73604.3,-5.21,-6.05,-6.13,0,*52
1514196427.47,36458,9.19,73610.8,-5.21,-6.13,-6.13,0,*5A
1514196428.67,36459,9.25,73608.0,-5.21,-6.13,-6.13,0,*5B
1514196429.87,36460,9.25,73616.5,-5.21,-6.05,-6.13,0,*56
1514196431.07,36461,9.19,73608.3,-5.25,-6.09,-6.09,0,*54
1514196432.26,36462,9.25,73616.0,-5.21,-6.05,-6.13,0,*54
1514196433.46,36463,9.19,73602.8,-5.21,-6.13,-6.05,0,*55
1514196434.65,36464,9.25,73616.3,-5.21,-6.05,-6.05,0,*55
1514196435.85,36465,9.19,73608.8,-5.21,-6.13,-6.13,0,*54
1514196437.04,36466,9.19,73604.0,-5.21,-6.05,-6.05,0,*57
1514196438.24,36467,9.19,73614.0,-5.21,-6.05,-6.13,0,*51
1514196439.43,36468,9.25,73606.3,-5.21,-6.05,-6.05,0,*59
1514196440.63,36469,9.19,73604.0,-5.21,-6.13,-6.13,0,*58
1514196441.86,36470,9.19,73616.3,-5.25,-6.09,-6.19,0,*55
1514196443.08,36471,9.19,73614.0,-5.27,-6.09,-6.09,0,*57
1514196444.31,36472,9.25,73618.0,-5.25,-6.19,-6.09,0,*57
1514196445.5,36473,9.25,73612.3,-5.21,-6.13,-6.05,0,*54
1514196446.7,36474,9.25,73630.5,-5.21,-6.13,-6.13,0,*54
1514196447.93,36475,9.19,73626.0,-5.25,-6.19,-6.09,0,*50
1514196449.15,36476,9.25,73634.8,-5.25,-6.19,-6.09,0,*53
1514196450.35,36477,9.19,73630.0,-5.21,-6.13,-6.13,0,*57
1514196451.57,36478,9.25,73634.8,-5.25,-6.19,-6.09,0,*5D
1514196452.77,36479,9.19,73628.3,-5.21,-6.05,-6.13,0,*5E
1514196453.96,36480,9.19,73624.0,-5.21,-6.05,-6.13,0,*58
1514196455.22,36481,9.25,73638.3,-5.25,-6.19,-6.19,0,*5A
1514196456.45,36482,9.19,73632.8,-5.25,-6.09,-6.19,0,*58
1514196457.67,36483,9.25,73624.0,-5.25,-6.19,-6.09,0,*59
1514196458.87,36484,9.25,73634.0,-5.21,-6.13,-6.13,0,*5B
1514196460.07,36485,9.25,73634.0,-5.25,-6.09,-6.09,0,*5E
1514196461.27,36486,9.19,73632.8,-5.25,-6.09,-6.09,0,*5D
1514196462.49,36487,9.19,73628.8,-5.25,-6.19,-6.09,0,*5D
1514196463.72,36488,9.19,73634.3,-5.25,-6.19,-6.09,0,*52
1514196464.92,36489,9.19,73624.0,-5.21,-6.13,-6.05,0,*51
1514196466.15,36490,9.19,73630.8,-5.25,-6.09,-6.19,0,*5B
1514196467.34,36491,9.25,73636.3,-5.21,-6.05,-6.09,0,*53
1514196468.54,36492,9.19,73620.8,-5.25,-6.09,-6.09,0,*58
1514196469.8,36493,9.19,73632.5,-5.25,-6.19,-6.19,0,*59
1514196471.05,36494,9.19,73634.3,-5.27,-6.09,-6.19,0,*5D
1514196472.27,36495,9.25,73642.5,-5.25,-6.19,-6.09,0,*5E
1514196473.5,36496,9.25,73642.3,-5.25,-6.19,-6.09,0,*5D
1514196474.7,36497,9.19,73646.8,-5.25,-6.09,-6.09,0,*5D
1514196475.92,36498,9.25,73650.3,-5.25,-6.19,-6.09,0,*53
1514196477.18,36499,9.25,73652.3,-5.27,-6.09,-6.19,0,*50
1514196478.41,36500,9.25,73636.8,-5.25,-6.09,-6.19,0,*53
1514196479.66,36501,9.25,73628.5,-5.25,-6.19,-6.19,0,*53
1514196480.86,36502,9.25,73618.3,-5.21,-6.05,-6.05,0,*54
1514196482.1,36503,9.25,73630.3,-5.27,-6.19,-6.09,0,*52
1514196483.33,36504,9.25,73620.5,-5.25,-6.19,-6.09,0,*57
1514196484.61,36505,9.25,73622.3,-5.27,-6.19,-6.19,0,*55
1514196485.81,36506,9.25,73620.0,-5.25,-6.13,-6.13,0,*54
1514196487.06,36507,9.19,73616.8,-5.25,-6.19,-6.19,0,*55
1514196488.26,36508,9.25,73628.3,-5.25,-6.09,-6.09,0,*5A
1514196489.54,36509,9.19,73628.5,-5.27,-6.19,-6.19,0,*59
1514196490.74,36510,9.19,73628.3,-5.25,-6.09,-6.09,0,*53
1514196491.96,36511,9.19,73636.8,-5.25,-6.19,-6.09,0,*53
1514196493.19,36512,9.19,73648.3,-5.25,-6.19,-6.09,0,*50
1514196494.47,36513,9.19,73636.5,-5.27,-6.19,-6.19,0,*52
1514196495.69,36514,9.25,73632.0,-5.27,-6.09,-6.09,0,*55
1514196496.97,36515,9.25,73616.5,-5.27,-6.19,-6.19,0,*54
1514196498.2,36516,9.25,73628.0,-5.25,-6.09,-6.19,0,*54
1514196499.48,36517,9.25,73610.5,-5.27,-6.19,-6.19,0,*56
1514196500.7,36518,9.25,73616.5,-5.25,-6.19,-6.09,0,*5A
1514196501.93,36519,9.19,73626.3,-5.25,-6.09,-6.19,0,*5B
1514196503.19,36520,9.25,73638.5,-5.27,-6.09,-6.19,0,*53
1514196504.41,36521,9.19,73616.0,-5.27,-6.09,-6.09,0,*53
1514196505.63,36522,9.25,73644.5,-5.27,-6.09,-6.09,0,*50
1514196506.91,36523,9.19,73622.8,-5.27,-6.19,-6.19,0,*51
1514196508.16,36524,9.25,73638.5,-5.27,-6.19,-6.09,0,*57
1514196509.41,36525,9.19,73646.5,-5.27,-6.09,-6.19,0,*56
1514196510.69,36526,9.25,73644.5,-5.27,-6.19,-6.19,0,*54
1514196511.94,36527,9.25,73640.8,-5.27,-6.19,-6.09,0,*54
1514196513.19,36528,9.25,73648.0,-5.27,-6.19,-6.09,0,*5B
1514196514.41,36529,9.25,73660.5,-5.27,-6.09,-6.09,0,*5B
1514196515.66,36530,9.25,73658.8,-5.27,-6.09,-6.19,0,*52